Date String (YYYY-MM-DD hh:mm:ss) UTC,Instrument flags,Ambient pressure (hPa),Sample flow (lpm),Bypass flow (lpm),Sample temperature (°C),Ambient temperature (°C),ASC tube jacket temperature (°C),LED temperature (°C),Box temperature (°C),Sample RH (%),Span deviation,Mass concentration (μg/m³),Mass concentration (μg/m³),Mass concentration (μg/m³)
DateTimeUTC,F1_M11,P_M11,Q1_M11,Q2_M11,T1_M11,T2_M11,T3_M11,T4_M11,T5_M11,U1_M11,ZSPAN_M11,X0_M11,X2_M11,X1_M11
2022-11-26 22:00:00,,0820.0,5.01,0.00,29.5,28.4,00.0,38.4,31.4,09.2,0000.0,0007.23,0003.53,0003.19
2022-11-26 22:01:00,,0820.0,4.99,0.00,29.5,28.4,00.0,38.4,31.3,08.7,0000.0,0006.72,0003.50,0003.18
2022-11-26 22:02:00,,0820.0,5.00,0.00,29.5,28.4,00.0,38.4,31.3,08.6,0000.0,0007.30,0003.49,0003.16
2022-11-26 22:03:00,,0820.0,5.00,0.00,29.5,28.4,00.0,38.4,31.4,08.7,0000.0,0008.44,0003.49,0003.15
2022-11-26 22:04:00,,0820.0,4.99,0.00,29.5,28.4,00.0,38.4,31.4,08.8,0000.0,0009.24,0003.47,0003.16
2022-11-26 22:05:00,,0820.0,5.01,0.00,29.5,28.4,00.0,38.4,31.4,08.8,0000.0,0009.73,0003.45,0003.16
2022-11-26 22:06:00,,0820.0,4.98,0.00,29.5,28.4,00.0,38.4,31.4,08.8,0000.0,0009.72,0003.42,0003.14
2022-11-26 22:07:00,,0820.0,5.01,0.00,29.5,28.4,00.0,38.4,31.4,08.8,0000.0,0009.68,0003.37,0003.12
2022-11-26 22:08:00,,0820.0,4.99,0.00,29.5,28.4,00.0,38.4,31.4,08.5,0000.0,0009.71,0003.36,0003.06
2022-11-26 22:09:00,,0820.0,5.00,0.00,29.5,28.4,00.0,38.4,31.3,08.6,0000.0,0009.72,0003.35,0003.03
2022-11-26 22:10:00,,0820.0,5.00,0.00,29.5,28.4,00.0,38.4,31.3,08.8,0000.0,0009.74,0003.33,0002.98
2022-11-26 22:11:00,,0820.1,5.00,0.00,29.5,28.3,00.0,38.4,31.3,08.8,0000.0,0009.48,0003.33,0002.96
2022-11-26 22:12:00,,0820.1,5.00,0.00,29.5,28.3,00.0,38.4,31.3,08.7,0000.0,0009.63,0003.36,0002.95
2022-11-26 22:13:00,,0820.1,5.00,0.00,29.5,28.3,00.0,38.4,31.3,08.6,0000.0,0009.28,0003.35,0002.94
2022-11-26 22:14:00,,0820.1,5.01,0.00,29.5,28.3,00.0,38.4,31.3,08.6,0000.0,0008.24,0003.31,0002.90
2022-11-26 22:15:00,,0820.2,5.00,0.00,29.5,28.3,00.0,38.4,31.3,08.7,0000.0,0007.11,0003.30,0002.86
2022-11-26 22:16:00,,0820.1,5.01,0.00,29.5,28.3,00.0,38.4,31.3,08.7,0000.0,0006.10,0003.28,0002.81
2022-11-26 22:17:00,,0820.2,5.00,0.00,29.5,28.4,00.0,38.4,31.3,08.7,0000.0,0006.06,0003.27,0002.77
2022-11-26 22:18:00,,0820.2,5.00,0.00,29.5,28.4,00.0,38.4,31.3,08.8,0000.0,0006.17,0003.29,0002.75
2022-11-26 22:19:00,,0820.2,4.99,0.00,29.5,28.4,00.0,38.4,31.3,09.0,0000.0,0006.14,0003.27,0002.75
2022-11-26 22:20:00,,0820.2,5.01,0.00,29.5,28.4,00.0,38.4,31.3,09.0,0000.0,0006.11,0003.25,0002.72
2022-11-26 22:21:00,,0820.2,4.99,0.00,29.5,28.4,00.0,38.4,31.3,08.5,0000.0,0007.03,0003.21,0002.61
2022-11-26 22:22:00,,0820.2,5.02,0.00,29.5,28.3,00.0,38.4,31.3,08.3,0000.0,0007.56,0003.05,0002.40
2022-11-26 22:23:00,,0820.2,4.98,0.00,29.5,28.3,00.0,38.4,31.3,08.4,0000.0,0007.81,0002.80,0002.21
2022-11-26 22:24:00,,0820.2,5.02,0.00,29.5,28.3,00.0,38.4,31.3,08.4,0000.0,0008.48,0002.57,0002.00
2022-11-26 22:25:00,,0820.2,4.99,0.00,29.5,28.3,00.0,38.4,31.3,08.3,0000.0,0008.58,0002.37,0001.81
2022-11-26 22:26:00,,0820.2,5.01,0.00,29.5,28.3,00.0,38.4,31.3,08.5,0000.0,0008.55,0002.18,0001.62
2022-11-26 22:27:00,,0820.3,4.98,0.00,29.5,28.3,00.0,38.5,31.3,08.4,0000.0,0008.38,0001.98,0001.43
2022-11-26 22:28:00,,0820.3,5.01,0.00,29.5,28.3,00.0,38.5,31.3,08.5,0000.0,0008.22,0001.76,0001.24
2022-11-26 22:29:00,,0820.2,4.98,0.00,29.5,28.4,00.0,38.5,31.3,08.6,0000.0,0007.95,0001.50,0001.04
2022-11-26 22:30:00,,0820.3,5.01,0.00,29.5,28.4,00.0,38.5,31.3,08.6,0000.0,0007.73,0001.28,0000.85
2022-11-26 22:31:00,,0820.3,4.98,0.00,29.5,28.4,00.0,38.5,31.3,08.4,0000.0,0007.77,0001.04,0000.66
2022-11-26 22:32:00,,0820.3,5.02,0.00,29.5,28.3,00.0,38.5,31.3,08.3,0000.0,0007.49,0000.87,0000.55
2022-11-26 22:33:00,,0820.3,4.98,0.00,29.5,28.3,00.0,38.5,31.3,08.4,0000.0,0007.08,0000.84,0000.52
2022-11-26 22:34:00,,0820.3,5.01,0.00,29.5,28.3,00.0,38.5,31.3,08.5,0000.0,0006.71,0000.85,0000.51
2022-11-26 22:35:00,,0820.3,5.00,0.00,29.5,28.2,00.0,38.5,31.3,08.5,0000.0,0005.95,0000.84,0000.51
2022-11-26 22:36:00,,0820.4,5.00,0.00,29.5,28.3,00.0,38.5,31.3,08.5,0000.0,0005.74,0000.87,0000.50
2022-11-26 22:37:00,,0820.4,5.00,0.00,29.5,28.2,00.0,38.5,31.3,08.4,0000.0,0005.64,0000.88,0000.50
2022-11-26 22:38:00,,0820.4,5.00,0.00,29.5,28.2,00.0,38.5,31.3,08.5,0000.0,0005.93,0000.89,0000.50
2022-11-26 22:39:00,,0820.4,5.01,0.00,29.5,28.1,00.0,38.5,31.3,08.6,0000.0,0005.87,0000.90,0000.52
2022-11-26 22:40:00,,0820.5,4.98,0.00,29.5,28.1,00.0,38.5,31.3,08.7,0000.0,0006.00,0000.95,0000.53
2022-11-26 22:41:00,,0820.5,5.01,0.00,29.5,28.2,00.0,38.5,31.3,08.8,0000.0,0006.31,0001.01,0000.54
2022-11-26 22:42:00,,0820.6,4.98,0.00,29.5,28.2,00.0,38.4,31.3,08.9,0000.0,0007.45,0001.10,0000.54
2022-11-26 22:43:00,,0820.6,5.01,0.00,29.5,28.1,00.0,38.4,31.3,08.9,0000.0,0006.46,0001.11,0000.55
2022-11-26 22:44:00,,0820.6,4.99,0.00,29.5,28.2,00.0,38.4,31.3,08.7,0000.0,0005.92,0001.09,0000.55
2022-11-26 22:45:00,,0820.6,5.01,0.00,29.5,28.2,00.0,38.4,31.3,08.7,0000.0,0004.93,0001.06,0000.55
2022-11-26 22:46:00,,0820.6,5.00,0.00,29.5,28.2,00.0,38.4,31.3,08.7,0000.0,0004.39,0001.07,0000.55
2022-11-26 22:47:00,,0820.6,5.00,0.00,29.5,28.1,00.0,38.4,31.3,08.6,0000.0,0004.06,0001.05,0000.55
2022-11-26 22:48:00,,0820.6,5.01,0.00,29.5,28.1,00.0,38.4,31.3,08.7,0000.0,0004.35,0001.04,0000.55
2022-11-26 22:49:00,,0820.6,5.00,0.00,29.5,28.1,00.0,38.4,31.3,08.8,0000.0,0004.07,0001.03,0000.55
2022-11-26 22:50:00,,0820.6,5.01,0.00,29.5,28.2,00.0,38.4,31.3,08.8,0000.0,0004.68,0001.03,0000.54
2022-11-26 22:51:00,,0820.6,4.98,0.00,29.5,28.1,00.0,38.4,31.3,08.7,0000.0,0005.29,0001.01,0000.53
2022-11-26 22:52:00,,0820.6,5.01,0.00,29.5,28.1,00.0,38.4,31.2,08.7,0000.0,0005.28,0000.99,0000.53
2022-11-26 22:53:00,,0820.6,4.98,0.00,29.5,28.0,00.0,38.4,31.2,08.8,0000.0,0006.27,0000.95,0000.53
2022-11-26 22:54:00,,0820.7,5.02,0.00,29.5,28.0,00.0,38.4,31.2,08.9,0000.0,0006.73,0000.96,0000.53
2022-11-26 22:55:00,,0820.7,4.98,0.00,29.5,27.9,00.0,38.4,31.2,08.9,0000.0,0007.01,0000.99,0000.54
2022-11-26 22:56:00,,0820.7,5.02,0.00,29.5,27.8,00.0,38.4,31.2,09.0,0000.0,0007.87,0001.06,0000.55
2022-11-26 22:57:00,,0820.7,4.99,0.00,29.4,27.8,00.0,38.4,31.2,09.0,0000.0,0008.98,0001.14,0000.56
2022-11-26 22:58:00,,0820.7,5.01,0.00,29.4,27.8,00.0,38.4,31.1,09.1,0000.0,0008.96,0001.18,0000.57
2022-11-26 22:59:00,,0820.8,5.00,0.00,29.4,27.8,00.0,38.4,31.1,09.2,0000.0,0009.65,0001.21,0000.58
